Regional Weather Roundup
Issued by NWS Northern Indiana

Home | Current Version | Previous Version | Graphics & Text | Print | Product List | Glossary On
Versions: 1 2 3 4 5 6 7 8 9 10 11 12 13 14 15 16 17 18 19 20 21 22 23 24 25 26 27 28 29 30 31 32 33 34 35 36 37 38 39 40 41 42 43 44 45 46 47 48 49 50
000
ASUS43 KIWX 241600
RWRIWX

KIWX WEATHER ROUNDUP
NATIONAL WEATHER SERVICE NORTHERN INDIANA
1200 PM EDT THU APR 24 2014

NOTE: "FAIR" INDICATES FEW OR NO CLOUDS BELOW 12,000 FEET WITH NO
SIGNIFICANT WEATHER AND/OR OBSTRUCTIONS TO VISIBILITY.

* THESE STATIONS ARE NOT UNDER NWS QUALITY CONTROL. THEY ALSO MAY NOT
  REPORT WEATHER SUCH AS PRECIPITATION OR FOG.

INZ001>027-241700-
NORTHERN INDIANA

CITY           SKY/WX    TMP DP  RH WIND       PRES   REMARKS
GARY*          CLOUDY    59  34  38 SE21G36   29.95F
VALPARAISO     PTSUNNY   58  29  33 SE17G29   29.98F
SOUTH BEND     PTSUNNY   56  28  34 SE18G32   30.03F
ELKHART*       MOSUNNY   57  27  30 SE17G25   30.04F
GOSHEN         PTSUNNY   57  25  29 SE21G31   30.05F
ANGOLA*        SUNNY     52  28  40 SE12      30.09F
FORT WAYNE     PTSUNNY   56  24  29 SE17      30.08F
PERU/GRISSOM   PTSUNNY   58  30  33 SE22      30.01F

$$
INZ028>050-241700-
CENTRAL INDIANA

CITY           SKY/WX    TMP DP  RH WIND       PRES   REMARKS
LAFAYETTE      MOSUNNY   59  32  36 SE18G29   29.97F
KOKOMO*        PTSUNNY   57  30  35 SE22      30.02F
MUNCIE*        MOSUNNY   55  21  26 SE15G26   30.05F
INDIANAPOLIS   PTSUNNY   57  33  40 SE17      30.00F

$$
MIZ043>046-050>051-056>058-064>065-071>073-077>080-241700-
SOUTHWEST LOWER MICHIGAN

CITY           SKY/WX    TMP DP  RH WIND       PRES   REMARKS
BATTLE CREEK   CLOUDY    51  24  34 SE13      30.09F
BENTON HARBOR  CLOUDY    55  31  39 SE22G30   30.00F
COLDWATER*     PTSUNNY   52  16  24 SE17G23   30.09F
HILLSDALE*     CLOUDY    52  18  26 SE15      30.10F
HOLLAND        CLOUDY    55  35  47 SE15G26   30.04F
GRAND RAPIDS   LGT RAIN  52  33  48 SE15      30.08F
KALAMAZOO      PTSUNNY   54  25  32 SE14G24   30.07F
STURGIS*       PTSUNNY   52  27  37 SE17      30.06F
THREE RIVERS*  FAIR      55  24  30 SE15G21   30.07F

$$
OHZ001>008-015>018-024>025-241700-
NORTHWEST OHIO

CITY           SKY/WX    TMP DP  RH WIND       PRES   REMARKS
DEFIANCE       CLOUDY    54  21  27 SE13      30.12F
FINDLAY        CLOUDY    53  19  26 E15       30.11F
TOLEDO EXPRESS CLOUDY    49  16  26 E12       30.14F
TOLEDO METCALF PTSUNNY   51  19  28 SE13      30.15F
LIMA           CLOUDY    55  21  26 SE14G22   30.10F

$$
&&



USA.gov is the U.S. government's official web portal to all federal, state and local government web resources and services.